Wetbulb
59.31 58.21 57.48 59.86 61.46 60.23 58.85 57.37 56.24 57.91 60.56 61.26 61.60 62.27 64.42 67.88 67.95 66.84 66.93 67.50 68.26 68.98 70.73 71.83 72.92 73.76 74.12 74.76 75.19 75.45 75.47 76.39 76.47 75.81 75.01 74.99 74.35 75.23 76.00 77.98 77.84 77.45 76.80 77.56
56.02 56.49 60.42 60.74 60.41 59.24 58.63 57.26 57.09 58.52 60.76 61.35 60.93 60.64 63.80 66.80 68.05 68.32 67.69 67.91 68.61 69.57 70.76 72.01 73.11 73.94 74.34 74.69 75.27 75.63 75.98 76.59 76.62 75.94 76.01 76.21 75.67 75.91 76.22 77.06 75.13 76.35 77.16 77.48
55.22 58.48 59.35 58.35 58.56 57.84 58.37 57.29 57.09 56.53 58.07 61.37 61.21 58.02 62.77 65.45 68.05 68.99 69.36 69.47 69.81 70.00 70.34 71.86 72.89 73.75 74.39 75.04 75.57 75.96 76.63 76.88 77.08 77.46 76.44 76.06 76.90 75.05 73.40 73.56 73.05 74.25 77.02 76.90
54.11 57.10 55.48 56.52 56.67 58.77 56.24 59.64 56.93 55.91 55.61 53.93 58.99 52.32 58.43 64.56 65.44 67.50 68.58 69.26 69.38 70.24 71.35 71.92 72.84 73.38 74.17 75.31 76.57 76.79 77.22 77.44 77.52 77.81 76.80 76.41 75.01 73.27 72.86 73.88 75.33 75.43 76.74 76.80
51.58 51.99 52.53 53.52 56.02 58.89 57.22 57.75 56.32 55.91 55.68 56.04 56.56 54.49 57.78 63.12 62.36 65.05 67.87 69.03 69.93 70.76 71.23 71.72 72.49 73.48 74.42 75.37 76.08 76.87 77.33 77.63 77.86 77.67 78.53 76.42 76.01 74.98 75.10 74.33 75.84 76.18 76.10 76.96
52.08 54.25 53.81 54.10 55.34 56.45 58.04 55.57 56.07 56.77 56.18 51.92 55.67 54.85 55.15 58.74 59.74 62.51 64.89 68.40 69.77 70.47 71.51 72.43 73.37 73.72 74.08 74.93 75.77 76.28 76.92 77.23 77.69 77.49 77.56 77.25 76.56 75.95 74.42 74.19 73.94 74.07 73.99 74.04
51.48 51.35 53.42 53.89 52.18 55.07 54.83 53.71 49.87 49.47 50.21 50.40 56.67 54.66 56.23 59.70 60.58 61.36 63.41 64.99 68.84 70.51 71.15 71.76 72.30 72.95 73.98 74.12 74.82 75.65 76.66 76.62 77.33 76.99 77.04 77.26 77.50 77.20 75.87 75.08 73.72 74.04 73.49 73.69
47.55 46.46 51.61 53.65 52.19 51.39 52.36 52.03 48.44 45.85 47.81 50.82 56.58 52.54 55.76 60.98 61.64 63.01 65.38 65.82 67.25 69.25 71.05 71.59 72.33 73.21 74.12 74.28 74.77 75.42 76.14 76.46 76.70 76.64 76.98 77.48 77.78 76.38 75.73 75.99 75.04 74.47 74.14 74.06
48.12 47.73 52.11 52.11 53.83 53.33 51.35 49.22 53.27 49.84 51.43 50.60 53.18 55.68 58.18 60.08 60.27 60.99 63.26 64.86 66.97 68.11 69.93 71.38 72.54 73.22 74.17 74.61 74.86 75.33 76.24 76.83 76.80 76.67 76.97 76.95 77.06 76.55 75.56 76.01 76.11 74.83 74.70 72.82
50.90 47.20 51.81 52.53 52.72 53.11 52.12 54.25 48.62 49.63 45.79 46.01 50.71 52.68 53.13 57.74 58.80 59.95 59.53 63.18 67.45 68.98 69.49 70.86 72.26 73.46 74.34 74.85 75.43 76.05 76.56 76.46 76.51 76.34 76.55 76.19 76.39 76.36 76.37 75.87 75.51 74.48 73.30 72.20
54.23 51.54 50.45 51.50 50.33 49.99 50.52 49.44 50.68 50.81 50.41 47.60 47.82 51.40 58.31 58.42 59.72 59.90 59.82 63.56 66.94 69.29 69.69 70.63 72.19 73.40 74.66 75.04 75.36 75.57 76.21 76.12 76.22 76.20 76.35 76.34 76.13 76.39 75.73 73.49 73.33 73.07 72.10 70.79
55.52 53.05 50.30 51.30 52.97 52.81 52.51 51.17 51.27 47.63 47.56 49.56 49.17 49.77 57.34 57.69 58.44 59.91 60.96 62.78 65.73 70.05 70.37 70.89 71.72 73.06 74.26 74.48 75.12 75.14 75.74 75.91 76.32 76.70 76.66 76.19 76.00 74.36 73.44 71.89 72.56 71.58 70.02 69.04
56.08 52.32 48.40 50.23 51.07 51.87 50.40 52.08 51.61 51.61 50.97 48.64 46.56 48.82 57.34 58.35 58.47 60.05 61.59 64.23 67.63 70.12 70.67 71.43 71.98 72.85 73.97 73.97 74.71 74.95 75.34 75.90 76.50 76.76 76.13 75.28 73.44 72.72 72.25 70.62 70.07 68.58 68.02 66.27
58.28 53.13 50.57 47.82 51.65 54.38 52.60 53.48 53.36 50.56 47.36 48.03 48.46 50.21 54.02 55.97 56.81 60.16 65.11 64.73 66.77 69.80 70.43 71.65 72.02 73.06 73.81 74.02 74.30 74.67 75.17 76.00 76.07 75.71 74.89 73.43 72.21 71.10 70.57 69.62 69.62 67.38 66.27 64.49
56.00 51.23 53.43 53.25 53.58 53.75 53.45 53.15 53.20 51.03 50.90 48.54 50.20 50.83 53.81 55.84 61.78 64.56 66.36 66.96 65.09 67.66 69.62 71.20 71.92 72.89 73.65 73.71 74.42 74.83 74.96 75.11 75.30 74.62 73.65 72.69 71.89 71.08 69.95 68.89 67.31 65.48 64.87 63.83
56.51 51.65 53.13 51.80 53.49 53.20 51.91 53.97 53.97 53.23 51.09 51.16 51.51 51.59 56.11 59.09 64.69 65.38 66.46 67.39 66.62 66.43 68.76 70.70 71.85 72.82 73.04 73.56 73.92 74.12 74.54 74.43 74.88 73.84 72.59 71.87 70.62 69.98 69.22 67.24 64.44 63.71 63.28 63.04
52.94 52.96 51.46 48.43 52.24 52.14 49.51 52.59 53.86 54.45 53.79 53.15 50.00 55.15 63.22 62.68 64.38 66.03 67.06 67.24 66.59 67.27 68.62 70.30 71.77 72.42 73.01 73.90 74.32 73.82 74.94 74.53 73.87 72.66 72.53 71.30 69.76 68.88 67.32 65.31 63.90 63.00 61.62 61.99
51.96 52.86 52.49 48.95 50.96 44.11 52.60 58.33 57.74 55.78 57.24 59.61 59.96 60.81 63.73 65.00 66.49 67.46 67.81 69.03 69.09 68.69 68.60 70.78 72.15 73.03 73.63 74.66 74.95 75.00 74.77 73.89 73.77 72.49 71.21 70.33 68.74 67.88 66.09 64.56 63.45 62.72 60.87 59.98
56.24 54.31 50.72 47.97 47.77 50.36 51.65 54.41 56.79 56.92 56.18 61.21 60.87 62.16 64.22 66.05 66.56 66.50 69.04 71.32 70.85 70.63 70.58 71.47 72.84 74.10 74.52 74.75 74.67 74.04 73.27 72.94 72.03 70.03 69.37 69.18 68.74 66.57 65.39 64.23 62.83 61.03 58.89 59.20
55.72 56.06 52.33 50.28 46.21 44.17 52.22 58.09 60.50 60.91 53.79 62.19 62.10 62.22 63.07 65.32 59.71 65.22 70.37 71.89 72.01 71.66 71.80 71.57 73.28 74.42 74.70 74.23 72.77 71.87 71.81 71.27 70.81 69.08 68.79 69.75 67.96 66.41 65.14 64.33 61.02 59.55 59.95 59.86
51.67 52.59 49.97 50.07 48.41 51.33 56.38 58.73 60.82 52.41 55.08 62.37 62.21 62.43 62.57 61.77 63.19 65.99 71.36 72.01 72.87 72.95 72.79 73.05 73.79 74.12 73.82 71.95 71.83 70.66 70.47 69.62 68.08 69.57 67.60 66.43 66.48 66.26 64.39 62.81 60.63 59.94 60.12 60.29
50.15 48.95 49.72 51.22 48.89 46.77 59.63 58.91 55.05 59.92 62.44 61.95 62.78 63.03 62.47 63.63 64.42 65.25 69.87 71.21 71.33 72.16 72.65 73.38 72.44 70.71 70.03 70.73 71.52 69.91 69.05 66.90 69.83 68.16 65.59 64.22 64.08 64.67 64.06 62.58 62.06 61.70 61.35 60.44
49.19 53.13 51.00 53.38 53.89 59.86 61.28 60.56 62.31 62.87 61.75 62.36 60.44 62.99 63.67 63.58 64.19 64.65 68.56 70.32 68.37 68.47 69.83 70.18 69.47 68.67 68.45 69.58 71.58 64.78 65.37 69.21 66.97 66.65 64.33 63.90 64.04 63.75 63.70 62.73 61.72 60.46 60.92 59.26
52.31 55.98 53.93 52.94 55.31 56.55 59.58 61.72 62.60 63.13 62.53 62.24 59.72 62.26 61.77 62.93 64.23 65.04 67.44 70.94 68.23 68.06 68.38 68.61 67.47 66.26 66.96 68.26 66.04 67.86 69.44 69.00 67.76 65.59 65.08 64.18 63.47 62.60 62.68 62.58 61.26 59.53 58.88 58.37
50.44 53.68 52.67 53.14 55.65 57.56 59.24 60.83 60.53 60.72 59.09 58.98 59.45 59.97 60.73 59.46 62.55 66.10 67.45 70.80 68.13 67.77 67.46 67.08 66.62 66.60 65.63 65.59 66.57 69.10 67.63 68.72 65.91 65.36 64.64 63.59 61.77 61.58 61.32 61.80 60.66 59.20 61.67 59.10
50.18 49.04 47.70 47.30 52.32 52.88 54.11 59.26 59.07 57.40 56.88 56.47 55.95 57.34 59.62 59.78 60.38 65.99 67.70 70.52 70.13 68.74 67.66 66.78 66.43 65.73 64.99 65.57 67.33 67.28 68.80 67.33 65.60 63.19 62.21 63.33 62.94 62.32 61.62 59.79 59.51 53.88 52.95 52.96
MSLP
1000.88 1000.35 999.65 999.29 999.53 999.72 1000.09 1000.30 1000.23 1000.31 1000.81 1001.27 1000.94 1001.08 1001.56 1003.06 1003.75 1004.06 1004.53 1005.00 1005.29 1005.58 1006.22 1007.06 1008.05 1008.75 1009.42 1010.11 1010.80 1011.58 1012.23 1012.80 1013.55 1013.89 1013.94 1014.09 1014.14 1014.45 1014.58 1014.87 1015.47 1015.61 1015.68 1015.81
1000.68 999.74 999.30 999.43 999.76 1000.10 1000.14 1000.04 999.96 1000.12 1000.64 1000.92 1000.13 1000.05 1000.37 1001.40 1002.54 1002.91 1003.46 1004.02 1004.28 1004.61 1005.29 1006.35 1007.17 1007.95 1008.76 1009.55 1010.32 1011.14 1011.80 1012.54 1013.25 1013.38 1013.88 1013.74 1014.11 1014.26 1014.79 1014.98 1015.82 1015.58 1015.57 1015.70
999.88 999.44 999.65 1000.00 999.99 999.97 999.65 999.65 999.74 1000.05 1000.05 999.83 999.78 998.36 999.37 1000.29 1001.41 1002.08 1002.58 1003.11 1003.50 1003.79 1004.25 1005.25 1006.28 1007.05 1007.86 1008.78 1009.66 1010.50 1011.26 1011.95 1012.74 1012.96 1013.91 1014.25 1014.42 1014.91 1015.41 1015.69 1015.88 1015.76 1015.49 1015.79
1000.06 999.74 1000.22 1000.05 999.74 999.76 999.15 999.02 1000.03 1000.00 999.78 998.78 999.42 998.14 997.89 999.15 1000.21 1001.08 1001.59 1002.03 1002.51 1003.33 1003.80 1004.29 1005.26 1006.07 1006.83 1007.79 1009.01 1009.80 1010.71 1011.47 1012.26 1012.80 1013.11 1013.38 1013.58 1013.92 1014.69 1015.21 1015.44 1015.72 1015.63 1015.68
1000.06 1000.45 1000.32 1000.02 999.64 999.63 999.48 999.68 1000.09 1000.01 999.60 998.85 998.50 998.25 997.15 997.98 998.54 999.35 1000.14 1000.65 1001.35 1002.00 1002.98 1003.37 1004.03 1004.91 1005.79 1006.92 1008.19 1009.04 1010.13 1011.03 1011.65 1012.29 1012.43 1012.97 1013.21 1013.30 1013.83 1014.52 1015.09 1015.48 1015.58 1015.44
1000.41 1001.17 1000.67 999.99 1000.01 1000.01 999.90 1000.17 1000.15 999.92 999.54 998.49 997.76 997.47 996.53 996.15 996.92 997.55 998.28 999.38 1000.19 1000.82 1001.87 1002.58 1003.37 1004.17 1004.98 1006.11 1007.46 1008.46 1009.51 1010.40 1011.09 1011.85 1012.22 1012.45 1012.83 1013.14 1013.41 1014.03 1014.52 1014.97 1015.51 1015.68
1000.51 1000.71 1000.67 1000.76 1000.19 1000.05 1000.03 999.47 998.79 998.53 998.16 997.47 997.00 997.31 996.27 995.87 996.05 996.11 997.04 997.78 998.76 999.72 1000.64 1001.81 1002.34 1003.24 1004.50 1005.47 1006.74 1007.75 1008.96 1009.82 1010.58 1011.27 1011.80 1012.22 1012.60 1013.13 1013.49 1013.86 1013.97 1014.18 1014.51 1014.89
1000.25 999.61 999.98 1000.06 1000.01 999.28 999.17 998.98 998.02 997.35 997.01 996.64 996.69 996.67 996.00 995.81 995.84 995.92 996.76 997.53 998.02 999.00 999.73 1000.74 1001.79 1002.59 1003.92 1004.97 1006.17 1007.08 1008.38 1009.35 1010.03 1010.69 1011.26 1011.93 1012.46 1012.79 1013.09 1013.78 1013.42 1014.04 1014.21 1014.88
1000.30 1000.12 1000.07 1000.26 999.87 999.80 998.92 998.99 998.59 997.70 997.17 996.62 996.25 995.84 996.28 995.94 995.38 995.30 995.87 996.70 997.52 998.33 999.06 999.89 1000.89 1001.76 1003.06 1004.41 1005.52 1006.51 1007.74 1008.84 1009.64 1010.25 1011.01 1011.58 1012.14 1012.42 1012.73 1013.38 1014.06 1014.21 1014.81 1015.53
1001.44 1000.86 999.99 999.60 1000.15 1000.01 999.44 998.92 998.36 998.00 997.02 996.09 995.75 995.44 995.19 995.18 995.11 995.08 995.39 996.18 996.97 997.96 998.58 999.24 1000.18 1001.37 1002.50 1003.76 1004.95 1006.17 1007.27 1007.99 1008.80 1009.44 1010.23 1010.90 1011.62 1012.27 1012.77 1013.49 1014.06 1014.76 1015.41 1015.88
1002.30 1001.48 1000.10 1000.13 999.36 998.62 999.13 998.95 998.52 997.53 996.71 995.85 995.26 994.47 994.33 995.01 995.18 995.12 995.39 996.40 996.82 997.69 998.29 998.93 999.87 1001.06 1002.19 1003.21 1004.38 1005.56 1006.66 1007.39 1008.15 1008.84 1009.66 1010.42 1011.19 1011.96 1012.93 1013.54 1014.32 1014.94 1015.74 1016.31
1003.24 1002.10 1000.32 999.29 999.04 999.30 998.72 997.95 997.74 997.12 997.02 996.75 996.01 994.65 994.65 995.05 995.20 995.71 996.05 996.53 996.81 997.45 998.15 998.86 999.75 1000.73 1002.00 1002.94 1003.95 1004.94 1006.01 1006.78 1007.46 1008.25 1009.36 1010.16 1011.08 1012.19 1012.89 1013.43 1013.98 1014.65 1015.30 1016.03
1003.78 1002.18 1000.75 999.10 999.19 999.54 999.03 998.24 997.96 997.22 996.75 996.17 995.58 995.02 995.02 995.10 995.69 996.04 996.25 996.52 996.99 997.40 998.01 998.75 999.55 1000.50 1001.86 1002.90 1003.83 1004.62 1005.52 1006.23 1006.86 1008.02 1008.95 1009.99 1010.84 1011.61 1012.67 1013.56 1014.31 1014.89 1015.55 1016.20
1005.08 1002.79 1001.63 1000.24 999.46 999.70 999.41 998.87 998.40 997.78 996.57 996.14 995.57 995.41 995.44 995.48 995.62 995.85 996.62 996.89 997.11 997.45 997.61 998.27 999.29 1000.46 1001.66 1002.67 1003.53 1004.17 1004.91 1005.83 1006.54 1007.47 1008.30 1009.58 1010.44 1011.30 1012.11 1013.48 1014.32 1014.99 1015.45 1016.06
1004.55 1003.35 1002.42 1001.49 1000.91 1000.31 999.78 999.14 998.57 997.92 997.30 996.41 995.66 995.17 995.48 995.71 996.62 997.17 997.64 997.47 997.30 997.29 997.34 997.85 998.63 999.83 1001.27 1002.14 1003.13 1003.91 1004.40 1005.32 1006.20 1007.39 1008.65 1009.90 1010.93 1012.20 1012.72 1012.78 1014.04 1014.98 1015.45 1016.05
1004.34 1003.66 1003.14 1002.30 1001.52 1000.41 999.70 998.82 998.04 997.74 997.40 997.08 996.53 996.04 996.03 996.70 997.44 997.61 997.71 997.68 997.43 997.16 997.40 997.74 998.53 999.34 1000.45 1001.40 1002.27 1003.25 1004.12 1005.36 1006.44 1007.74 1008.87 1009.96 1011.09 1012.12 1012.80 1013.13 1014.01 1014.61 1015.19 1015.91
1004.74 1003.93 1003.15 1002.06 1001.36 1000.24 999.43 998.49 997.55 997.48 997.26 997.25 996.68 996.36 997.00 997.27 997.47 997.66 997.80 997.92 997.82 997.61 997.09 997.48 998.14 998.83 999.68 1000.36 1001.60 1002.71 1004.10 1005.54 1006.60 1007.69 1008.84 1009.96 1011.00 1012.31 1013.50 1013.90 1014.50 1014.62 1014.95 1015.67
1004.56 1004.21 1003.78 1002.65 1001.95 1000.26 999.13 998.54 998.53 998.08 997.65 997.83 997.83 997.62 998.05 997.80 997.62 997.62 998.35 998.28 998.21 997.99 997.55 997.38 997.88 998.53 999.64 1000.32 1001.71 1003.15 1004.39 1005.85 1006.97 1008.04 1009.02 1009.94 1011.11 1012.33 1013.31 1013.76 1014.46 1015.18 1015.26 1015.78
1004.26 1004.34 1003.53 1002.77 1001.49 1000.32 999.34 998.81 998.97 998.60 998.00 998.53 998.57 998.63 998.40 997.93 997.12 998.02 998.22 998.48 998.28 997.99 997.62 997.34 997.73 998.42 999.55 1000.33 1001.97 1003.57 1004.77 1005.89 1006.97 1008.14 1009.13 1010.39 1011.50 1012.51 1013.05 1013.50 1014.12 1014.92 1015.44 1015.60
1003.93 1004.26 1003.80 1002.62 1001.60 1000.09 999.09 999.99 1000.27 1000.04 998.89 998.88 999.55 999.50 999.35 998.63 996.98 997.73 998.53 998.59 998.26 997.71 997.38 997.41 997.84 998.73 1000.01 1000.93 1002.65 1003.84 1004.60 1005.79 1007.01 1008.52 1009.72 1010.70 1012.31 1013.52 1014.02 1014.08 1014.03 1014.48 1015.32 1015.75
1003.77 1003.82 1003.28 1002.32 1001.62 1000.43 999.76 1000.43 1000.66 1000.39 1000.28 1000.69 1000.63 1000.57 1000.42 1000.13 1000.37 1000.05 999.64 999.42 998.88 998.29 998.05 998.30 998.68 999.37 1000.59 1002.05 1002.88 1003.65 1004.76 1005.79 1006.94 1008.07 1009.12 1009.93 1011.39 1013.75 1014.30 1015.09 1014.92 1014.62 1014.77 1015.31
1003.52 1002.94 1002.13 1002.04 1001.41 1000.50 1000.89 1001.00 1000.90 1001.18 1001.31 1001.71 1001.74 1001.42 1001.15 1000.85 1000.49 1000.33 1000.28 1000.52 1000.32 999.69 999.44 999.53 1000.00 1000.90 1001.94 1002.56 1002.90 1003.89 1004.80 1005.78 1006.70 1007.96 1009.21 1008.95 1007.84 1011.46 1013.13 1014.52 1015.15 1014.78 1014.74 1015.15
1003.99 1003.33 1002.75 1001.96 1001.11 1001.88 1001.78 1001.75 1001.81 1002.00 1002.05 1002.20 1002.83 1002.29 1001.73 1001.10 1000.62 1000.82 1000.56 1001.03 1001.56 1001.37 1001.13 1001.28 1001.48 1002.02 1002.71 1003.04 1003.13 1004.32 1005.54 1006.00 1006.77 1007.39 1008.57 1009.32 1009.57 1009.99 1011.13 1012.29 1014.20 1014.35 1014.64 1014.79
1003.83 1003.72 1003.80 1003.07 1002.24 1001.77 1001.63 1002.16 1002.28 1002.27 1002.51 1002.79 1002.72 1002.39 1001.97 1001.11 1001.21 1000.94 1000.72 1001.10 1001.92 1002.08 1002.11 1002.28 1002.59 1002.77 1003.06 1003.53 1004.18 1004.70 1005.48 1006.12 1006.82 1007.59 1008.95 1009.39 1009.75 1010.36 1011.38 1011.79 1012.95 1013.29 1013.80 1013.97
1004.08 1004.24 1003.80 1002.94 1002.67 1002.51 1002.25 1002.19 1002.24 1002.67 1003.05 1003.00 1002.65 1002.46 1002.11 1001.45 1001.50 1001.22 1000.78 1001.18 1001.96 1002.37 1002.74 1002.84 1003.00 1003.15 1003.43 1003.90 1004.30 1004.65 1005.45 1006.06 1006.86 1007.89 1008.77 1009.74 1010.20 1010.94 1011.38 1011.20 1011.61 1012.36 1013.03 1013.39
1004.73 1004.29 1003.86 1002.74 1002.93 1002.60 1002.42 1002.30 1002.63 1002.88 1002.87 1002.96 1002.74 1002.53 1002.02 1001.49 1001.88 1001.62 1000.57 1000.86 1001.55 1001.93 1002.56 1002.82 1003.12 1003.40 1003.70 1003.93 1004.06 1004.66 1005.44 1005.97 1006.97 1007.82 1008.54 1009.14 1009.82 1010.61 1010.93 1010.88 1011.65 1012.75 1013.26 1013.45
Wind_Speed
12 12 14 13 10 5 4 7 7 6 4 6 8 10 8 16 17 17 17 17 18 18 18 17 16 15 14 13 13 13 12 10 9 8 7 6 5 5 4 3 4 4 4 5
9 17 17 6 4 10 11 11 10 8 2 5 10 11 9 15 19 19 19 18 18 18 19 18 18 17 16 16 15 14 13 13 11 8 4 4 5 6 6 4 2 5 6 4
19 16 8 7 12 14 15 13 10 11 9 10 10 12 7 10 15 18 18 19 19 18 18 19 18 18 17 16 16 15 15 14 13 10 8 3 5 3 2 2 3 5 7 6
12 6 7 13 16 14 18 8 7 8 10 10 5 10 8 11 14 17 18 20 20 20 18 18 19 19 18 17 16 16 16 15 13 14 11 10 8 7 5 5 5 3 4 6
6 9 13 15 14 12 16 2 6 9 12 13 13 8 1 9 9 14 18 21 22 21 20 19 19 19 18 16 16 16 16 15 14 15 12 10 9 6 7 6 8 6 4 4
1 1 5 8 7 12 10 7 10 12 12 14 17 8 11 3 2 5 4 17 20 23 22 20 19 18 17 16 16 15 16 16 16 15 15 13 11 8 7 8 8 7 6 5
13 13 11 9 12 8 11 16 15 17 15 13 15 8 12 13 12 8 3 7 18 21 23 21 20 18 16 18 18 16 17 16 17 17 15 14 12 11 9 8 8 6 6 5
8 13 16 14 17 14 14 17 15 21 16 14 7 9 13 10 10 11 2 4 7 17 20 22 21 20 19 19 19 19 18 16 17 16 16 13 12 9 8 9 5 7 5 5
5 11 1 6 11 12 17 12 17 23 22 11 14 9 7 16 16 12 2 4 8 14 19 23 23 21 19 18 20 20 19 17 16 16 14 14 12 10 8 6 6 5 4 6
3 11 10 9 6 10 14 8 10 12 19 22 17 17 9 11 8 8 3 5 7 12 16 20 20 19 18 19 18 19 19 19 18 16 15 14 14 12 9 8 7 7 6 6
8 6 2 4 12 14 11 14 13 15 12 15 16 14 14 9 13 10 7 1 5 12 14 17 17 17 17 17 18 18 18 18 17 15 14 14 13 11 9 9 9 9 9 7
5 9 9 13 6 5 12 15 18 12 16 11 15 14 8 7 8 9 5 3 6 10 11 14 16 17 17 17 17 18 17 17 17 15 14 14 12 12 12 12 12 11 11 9
8 6 9 11 9 8 10 13 15 17 17 18 16 10 14 13 9 10 8 4 6 12 13 13 16 17 16 16 16 17 18 18 17 16 16 16 16 15 13 13 11 11 10 9
4 13 11 13 13 9 11 12 12 16 15 16 18 19 14 18 18 6 9 7 7 12 15 15 16 15 15 16 17 18 19 19 19 19 19 18 17 17 17 14 12 12 11 10
7 12 14 13 13 13 14 14 14 16 17 20 18 18 11 13 10 12 12 10 10 11 16 17 18 18 17 18 18 19 20 20 20 18 17 17 14 13 13 15 14 12 11 10
11 12 11 13 18 15 18 19 18 15 15 18 17 19 15 4 10 10 11 11 9 10 13 16 17 18 20 20 20 20 20 19 18 17 17 16 16 15 14 16 14 13 12 11
15 12 12 15 15 13 18 21 21 12 11 12 14 9 10 9 9 11 12 11 10 9 11 15 17 18 19 22 21 21 19 19 18 18 18 17 16 14 13 13 13 13 13 12
15 13 10 12 14 18 18 3 7 10 9 7 11 8 10 11 9 7 4 11 12 9 10 11 14 15 17 17 18 18 19 18 17 17 17 17 16 15 14 14 12 11 11 11
15 13 11 12 13 15 18 7 7 8 12 3 7 6 10 13 13 9 7 13 12 10 9 9 13 14 15 16 17 16 18 18 17 16 17 16 16 15 15 15 14 12 11 11
6 11 10 11 11 15 10 7 5 6 13 7 3 6 11 17 12 12 17 15 13 9 6 7 11 12 14 14 15 18 18 15 14 14 14 14 12 11 11 12 14 12 11 10
9 9 13 12 12 12 6 3 1 12 2 8 8 9 10 9 10 16 16 14 12 8 1 3 7 10 12 13 18 16 16 15 16 17 15 14 14 9 10 9 10 12 12 11
10 9 11 11 15 19 6 3 10 8 3 6 10 10 11 11 12 14 14 13 13 10 5 3 7 6 9 14 14 15 15 18 20 18 17 18 24 15 12 12 10 11 10 11
9 9 10 9 4 5 4 7 6 7 6 5 10 13 12 13 12 13 12 7 8 5 3 3 7 9 10 10 10 15 16 20 20 18 17 14 12 12 13 15 13 11 11 10
16 12 10 14 11 15 11 7 7 5 6 7 9 10 13 12 14 12 11 8 5 3 2 5 8 10 10 8 14 16 18 17 18 17 16 16 15 13 13 12 12 10 11 11
10 3 11 15 16 18 13 14 8 5 8 10 11 11 11 12 14 12 10 6 3 1 2 4 7 9 10 11 12 15 13 14 14 14 14 13 12 13 12 11 11 10 10 10
12 17 14 15 16 17 17 12 7 14 14 13 11 11 13 12 13 13 8 8 3 3 5 6 7 8 9 10 12 11 12 14 13 13 12 12 12 11 11 10 9 7 7 5
Wind_Direction
201 221 225 216 232 332 294 284 303 354 53 288 263 268 234 188 204 192 194 196 195 193 183 182 191 190 192 195 193 192 197 192 189 189 196 186 194 184 190 186 194 204 209 193
202 232 240 275 277 250 255 275 276 299 62 261 297 285 258 189 206 206 199 197 202 196 183 187 189 193 193 193 195 191 197 187 197 182 207 181 186 170 177 177 225 231 212 207
236 231 279 220 226 248 246 261 294 301 319 243 290 274 152 193 202 212 212 206 203 204 192 187 195 197 195 197 195 196 194 190 194 182 165 145 140 112 108 143 188 233 220 208
243 241 254 234 243 237 263 259 256 273 275 293 343 309 276 145 201 209 217 213 207 203 207 187 191 197 199 193 197 195 194 191 187 183 181 180 191 177 185 183 164 178 200 217
195 218 230 247 245 243 262 40 265 288 277 277 262 260 21 172 199 209 212 216 213 203 204 198 192 195 198 186 189 192 189 188 186 184 195 181 202 181 177 173 166 165 164 165
209 100 255 255 243 251 262 218 235 246 266 267 259 263 280 95 306 124 202 204 214 208 201 207 193 188 188 185 181 183 183 186 183 186 193 193 185 190 181 186 178 175 150 178
206 219 229 247 237 195 224 241 250 242 231 245 253 239 262 311 308 305 303 250 197 208 198 199 198 184 184 183 183 179 179 182 181 185 188 188 186 188 191 186 203 180 180 183
258 226 206 206 235 249 212 242 249 247 250 257 157 237 256 263 314 298 291 257 196 202 201 196 200 189 183 184 183 180 178 180 181 184 186 186 182 189 198 199 194 207 186 167
273 235 211 235 249 251 240 238 259 271 268 259 274 217 251 267 266 277 27 271 200 192 200 194 194 195 181 184 185 182 177 179 181 183 184 185 183 194 198 185 197 172 154 128
312 270 253 237 205 222 258 321 213 228 250 256 239 253 265 280 256 289 274 236 182 190 195 193 192 190 185 186 185 182 180 179 179 181 183 181 179 179 171 167 184 157 139 137
315 253 236 213 212 229 185 237 239 282 264 258 255 247 230 226 255 291 336 346 204 189 192 191 187 188 184 185 182 181 180 177 177 179 177 175 177 165 165 154 154 149 144 143
23 303 275 283 85 328 290 267 242 241 241 244 273 274 151 211 287 300 289 246 229 200 190 190 186 180 179 183 177 180 179 175 176 170 170 167 158 161 166 155 153 150 144 144
348 260 288 248 172 193 242 247 251 266 259 257 273 263 243 257 261 287 300 264 211 195 184 187 184 182 181 181 175 176 178 177 170 165 167 162 165 164 157 151 150 141 142 139
264 269 274 292 340 332 292 265 255 260 256 257 249 263 260 279 263 285 308 289 241 204 185 183 182 180 178 182 176 176 177 173 165 170 171 169 166 161 154 151 151 147 143 142
276 286 285 269 277 280 271 277 269 262 261 263 278 276 293 254 333 314 305 291 265 222 200 189 185 178 180 178 178 179 179 175 170 170 164 168 151 153 152 145 148 146 146 144
291 276 268 272 273 263 264 268 268 267 264 266 262 272 270 294 295 292 305 311 291 252 223 202 195 181 183 181 180 179 176 176 168 161 166 155 154 156 163 146 146 150 145 148
284 275 269 267 271 272 260 255 258 262 269 278 260 290 351 290 303 312 314 321 312 286 242 209 199 190 190 186 181 180 172 170 167 165 159 157 150 157 162 151 153 152 151 153
253 264 266 273 274 257 266 38 298 275 273 256 271 291 310 304 305 305 43 348 333 323 278 214 206 197 196 187 180 175 171 172 169 163 158 153 153 160 159 155 157 160 153 159
229 248 255 259 251 256 274 245 257 263 268 207 285 302 323 318 283 150 335 343 327 308 284 227 208 196 188 177 168 170 172 172 164 161 154 154 161 163 163 161 161 162 160 161
236 225 248 243 261 268 256 21 357 302 258 127 328 357 352 332 290 47 351 347 335 321 281 222 195 185 177 168 157 173 172 158 153 140 149 153 151 163 173 167 158 155 164 163
200 224 233 236 251 265 286 337 292 243 39 348 355 350 350 353 343 320 344 343 342 342 338 167 177 168 164 161 174 169 157 154 137 146 142 137 132 167 172 173 170 164 168 158
256 252 240 231 263 261 64 224 254 8 336 6 339 343 330 330 329 337 338 349 346 357 29 101 110 133 152 173 173 167 153 139 145 143 147 156 149 173 167 178 183 175 173 167
250 248 291 295 276 41 340 303 316 301 323 356 360 331 326 328 339 336 327 353 333 344 31 131 146 139 155 181 175 132 144 150 153 156 167 169 148 147 156 161 180 177 178 181
255 256 258 274 256 274 299 266 264 275 308 347 328 325 332 351 332 326 326 336 329 354 74 111 143 151 164 152 148 150 163 165 165 163 171 159 156 155 163 165 173 183 185 195
266 324 263 264 263 269 260 259 274 296 318 319 314 322 321 337 320 322 328 326 325 282 198 174 171 169 157 154 166 165 166 162 155 161 161 159 148 164 171 177 173 188 192 204
261 263 256 268 284 293 298 298 264 309 301 298 291 299 306 319 305 302 334 313 277 252 189 195 188 176 170 179 180 156 160 159 158 157 159 167 160 176 177 168 164 82 33 117